ECMWFFLT1_sfc_thetae_000.txt.gz
Theta_e
287 287 287 287 287 287 287 286 286 286 286 286 286 284 284 283 283 283 282 281 280 280 279 279 279 278 278 278 278 277 277 277 278 278 278 278 278 278 278 278 278 277 277 278 277 277 277 278 278 278 278 278 277 278 278 279 279 278 278 278 278 278
287 287 286 286 286 286 286 286 286 285 285 285 285 284 284 283 282 281 280 280 279 279 279 278 278 278 277 277 277 277 277 277 277 277 277 277 277 277 277 277 276 276 276 276 276 276 276 276 277 277 277 277 277 277 277 278 278 278 277 277 278 278
287 287 287 287 287 286 286 285 285 285 285 284 284 283 282 281 281 280 280 279 279 278 278 277 277 277 277 276 276 276 276 276 277 277 277 277 276 276 276 275 276 276 275 275 275 275 276 275 276 276 276 276 275 276 276 276 276 276 276 276 276 277
287 287 286 286 286 285 285 285 285 284 284 284 284 283 282 281 280 280 279 279 278 278 277 277 277 276 276 276 276 275 276 276 276 276 276 275 275 275 275 275 275 275 275 275 274 275 275 275 275 275 274 274 274 274 274 274 274 274 274 274 274 274
287 286 286 285 285 285 285 284 284 284 284 283 283 282 281 280 280 279 279 278 278 277 277 277 276 276 276 275 276 275 276 276 276 276 275 275 275 275 275 275 275 274 274 274 274 274 273 273 273 273 273 272 272 272 272 272 272 272 271 271 272 272
286 285 285 285 285 284 284 284 284 284 283 283 282 281 280 280 279 279 278 278 277 277 276 276 276 275 275 275 276 275 276 275 275 275 275 274 275 274 274 274 274 274 273 273 272 272 272 272 272 271 271 270 270 270 270 270 270 270 270 270 270 270
285 285 285 285 284 284 284 283 283 283 283 282 281 281 280 279 279 278 278 277 276 276 276 276 276 275 275 275 276 275 275 275 275 275 274 274 273 273 273 273 273 272 271 271 271 271 270 270 270 270 269 269 269 269 269 269 269 269 269 269 269 270
285 285 285 284 284 284 283 283 283 283 282 282 281 280 279 278 278 278 277 277 276 276 275 276 275 275 275 275 275 274 274 274 274 274 273 273 272 271 271 271 270 270 270 270 270 270 269 269 269 269 269 269 269 268 268 268 268 268 268 268 268 268
284 285 285 284 284 284 283 283 283 282 281 281 280 279 278 278 277 277 276 276 276 275 275 275 275 275 275 275 274 274 274 273 273 272 271 271 270 269 269 269 269 269 269 269 269 269 269 268 268 268 268 268 268 268 268 267 267 268 268 268 268 268
285 284 284 284 283 283 283 283 283 282 281 280 279 278 278 277 276 276 276 275 275 275 275 275 275 275 274 274 273 273 272 272 271 270 269 269 268 268 268 268 268 268 268 268 268 269 269 268 268 268 269 269 269 268 267 267 267 268 268 268 269 269
285 284 284 284 283 283 282 282 282 281 280 279 278 277 277 276 276 275 275 275 275 275 275 275 274 274 273 272 271 270 270 269 269 268 267 267 267 267 267 267 267 267 267 268 268 268 268 268 268 268 268 268 268 268 268 268 268 268 268 268 269 270
286 285 284 283 283 282 282 282 281 280 279 278 277 277 276 276 275 274 274 274 275 275 274 274 273 272 271 270 269 269 268 267 267 266 266 265 266 266 266 266 266 267 267 267 268 268 268 268 268 269 270 271 270 270 270 270 270 270 269 269 269 270
286 285 284 283 283 282 282 281 281 280 279 277 276 276 275 275 274 274 274 274 274 274 273 272 271 271 269 269 268 267 266 266 265 265 265 265 265 265 266 266 266 267 267 267 267 267 267 268 268 270 271 273 273 271 270 270 270 270 270 270 269 269
285 284 284 283 283 282 282 281 280 279 278 277 276 275 275 274 274 273 274 274 273 272 272 271 270 269 268 267 266 265 265 264 264 264 264 264 264 265 266 266 266 267 267 267 267 267 267 267 269 271 272 273 273 273 271 271 270 270 270 270 270 270
286 285 284 284 283 282 282 281 279 278 277 276 276 274 273 273 273 273 273 273 272 271 271 270 268 267 266 266 265 264 263 263 263 263 263 264 265 265 265 266 266 266 267 267 267 266 267 267 269 271 272 273 274 274 273 271 271 271 271 271 271 271
287 286 285 284 283 283 282 281 279 279 277 275 274 273 273 272 272 272 272 271 271 270 270 268 267 267 266 265 264 264 263 263 263 264 264 264 265 265 265 265 265 266 266 266 266 266 267 267 269 271 272 273 274 274 274 272 271 271 271 270 270 270
286 285 284 283 282 281 280 279 278 276 275 274 272 272 272 272 272 271 271 270 270 269 268 267 266 266 265 264 263 263 262 262 263 263 264 265 265 265 265 265 265 265 265 265 266 266 266 266 270 272 272 273 274 275 275 272 271 270 270 271 271 271
285 284 283 282 281 279 279 278 276 274 273 273 272 271 271 271 271 271 271 269 269 268 268 266 266 265 264 264 263 262 262 263 263 263 264 264 264 265 265 265 265 265 264 265 265 265 265 266 270 271 272 273 274 275 271 271 271 271 271 271 271 271
285 284 282 281 279 277 277 276 274 273 271 271 271 271 271 271 270 270 270 269 268 267 267 266 265 264 263 263 262 262 262 262 262 263 264 263 264 264 264 264 264 265 265 264 265 265 265 266 268 271 272 273 274 273 271 271 271 271 271 271 271 272
284 283 281 278 277 276 275 274 273 271 271 270 270 270 270 270 270 270 269 268 268 267 266 266 265 263 263 262 261 261 262 262 263 263 263 263 263 263 264 264 264 264 265 264 264 265 264 265 268 271 272 273 274 274 271 271 270 270 271 271 271 272
282 280 279 277 275 275 274 273 272 271 270 269 269 269 269 269 270 269 268 268 267 266 265 264 263 263 262 261 261 261 260 261 262 263 263 263 263 263 264 264 264 264 264 264 264 266 266 265 267 271 272 273 274 273 272 271 271 270 270 271 271 272
279 277 277 276 275 274 273 273 272 271 270 269 270 269 269 269 270 269 268 267 265 264 263 262 261 261 260 260 260 261 261 262 262 262 262 262 263 263 264 263 263 263 263 264 265 265 267 267 267 268 272 273 274 275 272 272 271 270 270 271 271 270
279 277 276 276 274 272 272 272 271 270 270 269 269 269 269 269 268 267 266 265 263 262 262 261 260 260 260 260 260 261 261 262 262 261 261 261 262 262 262 262 262 263 264 265 266 267 267 267 267 268 272 273 274 275 275 272 272 272 271 271 271 271
277 276 275 274 272 272 272 271 271 270 269 269 269 270 269 267 266 265 264 263 262 261 260 260 260 259 259 259 260 260 261 262 261 261 261 262 262 261 261 261 262 263 265 266 266 267 267 269 270 269 271 273 274 275 276 273 273 273 272 271 270 270
275 275 274 272 271 271 272 272 270 269 269 269 269 268 266 265 264 263 262 261 260 259 259 259 259 259 259 259 260 259 260 261 260 260 260 260 260 261 261 262 263 264 264 265 267 268 268 268 269 271 270 273 274 275 276 277 275 277 273 271 269 269
274 272 270 270 270 270 272 271 269 268 268 268 266 265 264 263 262 262 260 259 259 259 258 258 259 259 260 259 260 260 260 260 260 260 261 261 261 262 262 263 264 264 264 265 266 267 268 268 269 270 272 272 274 276 277 277 277 276 273 272 270 270
272 270 269 269 269 270 271 271 269 268 268 266 264 263 262 262 261 260 259 259 258 258 258 258 259 259 259 259 259 260 260 259 260 261 261 261 261 262 262 263 263 263 264 265 265 266 267 268 268 269 271 273 274 276 276 276 276 276 275 270 270 270
271 269 267 267 268 269 270 270 270 268 266 264 263 263 262 260 259 259 258 258 258 258 258 258 258 258 258 259 260 259 261 260 260 261 261 262 262 262 262 262 263 264 265 265 265 265 266 267 268 269 270 272 273 274 275 275 275 274 274 273 271 273
268 267 266 266 267 268 269 269 270 267 264 263 263 262 260 259 259 258 258 258 257 257 258 259 259 259 258 258 260 260 260 261 261 261 261 262 262 262 262 263 264 265 265 264 265 265 266 267 268 269 270 271 271 271 272 272 270 272 272 269 269 271
268 267 266 265 266 267 267 266 265 264 263 262 262 260 260 259 259 258 258 257 258 257 258 259 258 259 260 259 259 260 261 261 260 261 261 262 262 262 262 264 265 265 265 264 265 266 266 266 268 268 269 270 271 271 271 270 269 268 268 268 269 268
268 267 266 266 265 265 265 263 262 262 262 261 260 259 259 259 259 258 257 258 258 257 257 258 257 258 259 258 258 259 260 260 260 261 261 263 264 264 265 265 266 266 266 266 266 266 265 266 267 269 273 272 274 271 270 269 268 268 268 270 272 267
268 267 266 265 264 264 263 261 261 261 261 260 259 260 259 258 257 257 258 258 258 257 257 257 257 257 257 258 258 259 259 260 262 262 262 263 266 268 269 269 267 267 267 267 268 268 267 267 269 273 274 274 274 274 273 272 272 272 270 271 271 267
267 266 265 264 263 262 261 260 260 260 259 259 260 259 258 258 258 258 258 257 257 257 257 258 258 257 258 258 258 258 259 260 261 264 266 267 267 267 268 269 269 270 270 268 267 268 272 273 273 273 273 273 273 273 272 272 271 272 271 271 266 263
266 265 264 263 262 261 260 259 259 258 258 259 259 259 259 259 259 258 258 258 258 257 257 258 258 257 258 258 258 258 259 259 260 261 265 266 265 267 268 268 269 269 269 270 270 269 268 271 272 272 272 272 272 272 271 271 270 271 271 270 268 262
266 266 264 262 261 260 260 259 258 258 258 258 258 259 259 259 259 258 258 258 257 257 256 257 257 257 257 257 257 257 258 258 258 259 260 262 265 266 267 267 268 269 269 269 270 270 270 271 271 271 271 271 271 271 271 270 269 270 270 268 262 261
266 264 263 261 260 260 259 258 257 258 258 258 258 259 259 259 258 257 257 257 257 257 257 257 257 257 257 257 257 257 257 257 257 256 256 257 258 260 263 265 266 267 267 268 269 269 270 270 270 270 270 270 270 270 270 268 265 268 268 266 261 261
265 263 262 261 260 259 258 258 257 257 257 257 258 258 258 258 257 257 257 257 258 257 257 257 257 256 256 256 256 256 256 256 256 256 256 256 255 256 256 257 259 262 265 265 265 268 269 269 269 269 269 269 269 269 268 266 262 260 260 261 261 260
263 262 260 260 259 259 258 257 257 257 257 256 257 257 257 256 257 257 257 256 256 256 257 256 255 256 256 256 255 256 256 256 256 255 255 255 255 255 255 256 258 257 260 265 266 267 268 268 268 268 268 268 269 268 266 260 259 259 259 259 260 260

ECMWFFLT1_sfc_thetae_003.txt.gz
Theta_e
292 292 291 291 291 290 290 290 290 290 290 289 289 288 287 287 287 287 286 286 286 285 284 283 283 282 282 282 282 281 280 280 280 280 280 281 281 281 280 280 280 280 280 280 279 279 279 279 279 279 279 279 278 279 279 279 279 278 278 279 279 279
292 291 291 290 290 290 290 289 289 289 289 289 289 288 287 287 286 286 285 285 285 284 283 283 282 282 281 281 280 280 280 280 280 280 280 280 280 280 279 279 279 279 278 278 278 278 278 278 278 278 278 278 278 278 278 278 278 277 277 278 279 279
292 292 291 291 290 290 289 289 288 288 288 288 288 287 286 286 286 285 285 284 283 283 282 281 281 280 280 280 280 279 279 280 280 280 280 280 279 279 278 278 278 278 278 277 277 277 277 277 277 277 277 277 276 277 277 276 276 276 276 277 277 277
292 291 291 291 289 288 288 288 288 288 287 287 288 287 286 285 285 284 284 283 282 282 281 281 280 280 280 279 279 279 279 279 279 279 279 278 278 278 278 277 277 277 277 277 276 276 276 276 276 276 276 276 275 275 275 275 275 274 274 275 274 275
292 291 289 289 288 288 288 288 287 287 287 287 287 286 286 285 285 284 283 282 281 281 281 280 279 279 279 279 279 278 278 279 279 279 278 278 278 278 277 277 277 277 276 276 276 276 276 276 275 275 275 274 274 274 274 274 273 272 272 272 272 273
291 290 289 288 288 287 287 287 287 287 287 287 287 286 285 285 284 283 282 281 281 281 280 279 279 279 278 278 278 278 278 278 278 278 277 277 277 277 277 277 276 276 276 275 275 275 275 274 274 274 274 273 273 272 272 272 272 272 271 271 271 271
290 289 289 288 288 288 287 287 287 287 286 286 286 286 285 284 283 282 281 281 280 280 279 279 279 278 278 278 278 278 278 278 278 278 277 277 276 276 276 276 276 275 275 274 274 274 273 273 273 272 272 272 272 272 271 271 271 271 271 270 270 271
290 289 289 289 288 288 287 287 287 286 286 286 286 285 285 283 282 282 281 280 280 279 279 279 278 278 278 278 278 278 278 278 277 277 277 277 276 276 276 275 274 274 273 273 273 273 272 272 272 271 271 271 271 271 271 271 270 270 270 270 270 270
289 289 289 289 288 288 287 287 286 286 286 286 286 285 284 283 282 281 280 280 279 279 278 278 278 278 278 278 278 278 277 277 277 276 276 276 275 274 274 273 273 273 272 272 272 271 271 271 271 271 271 271 271 270 270 270 270 270 270 270 270 270
290 289 289 288 288 288 287 287 286 286 285 285 285 284 283 282 281 281 280 280 279 279 278 278 279 278 278 278 278 277 277 276 276 275 275 274 273 272 272 272 271 271 271 271 271 271 271 271 270 270 270 270 270 270 270 270 270 270 270 270 270 270
291 290 289 288 288 287 286 286 286 286 286 285 285 283 282 282 281 280 280 279 279 279 279 279 279 278 278 277 277 276 275 275 274 274 273 272 271 271 271 271 270 270 270 270 270 270 270 270 270 270 270 270 270 270 270 270 270 271 271 271 271 271
293 292 290 289 288 287 286 286 285 285 285 284 284 282 282 281 280 279 279 279 279 279 279 278 277 277 276 276 275 274 274 273 272 271 270 270 270 269 269 269 269 269 269 269 270 270 270 270 270 271 272 273 271 271 271 271 271 271 271 271 270 271
294 294 292 289 288 287 286 286 285 285 284 284 282 282 281 280 279 279 278 278 278 278 278 277 276 275 274 274 274 273 272 271 270 269 269 268 268 268 268 268 268 268 269 269 269 269 270 270 270 272 273 274 275 273 272 272 272 272 272 272 271 271
294 294 293 291 289 287 286 286 285 285 284 283 282 281 280 280 279 278 278 278 278 277 276 275 275 274 273 272 271 270 269 269 268 267 267 267 267 267 267 267 268 269 269 269 269 269 269 269 271 273 274 274 275 275 273 273 272 272 272 272 272 272
294 293 293 292 289 288 287 286 285 284 284 282 282 280 279 279 278 278 278 277 277 276 275 274 273 272 271 270 269 268 267 267 266 266 266 266 267 267 267 267 268 268 269 269 268 268 269 269 271 272 273 274 275 276 275 273 273 272 272 272 272 271
296 294 293 292 290 288 287 286 285 284 283 281 280 278 278 278 278 278 277 276 275 275 274 273 271 270 269 268 267 266 266 265 265 266 266 266 267 266 267 267 268 268 268 268 268 268 268 268 270 272 273 274 275 276 275 273 273 272 272 272 272 271
294 292 290 290 288 287 286 285 284 282 281 280 278 278 277 277 277 277 276 275 274 273 272 271 270 269 268 267 266 265 265 265 265 266 266 266 266 266 267 267 267 267 267 267 267 267 267 268 271 272 274 274 275 276 276 273 272 272 271 272 272 272
292 291 290 288 287 285 285 284 283 281 280 279 278 277 277 277 276 275 275 274 272 272 271 270 269 268 267 266 265 265 265 265 265 265 266 266 267 267 267 267 267 266 266 266 266 266 266 267 271 272 273 274 275 276 273 272 271 271 271 272 272 273
292 291 288 286 286 284 284 283 282 281 279 278 277 277 276 276 275 274 273 272 272 271 271 270 269 267 266 266 265 265 265 265 265 265 266 265 266 266 266 266 266 266 266 266 266 265 265 266 269 271 273 274 275 274 272 272 271 271 271 272 272 273
290 289 287 286 285 284 284 282 282 280 278 277 276 275 275 275 274 273 273 272 271 271 270 270 268 267 266 265 265 264 265 265 266 265 266 265 265 266 266 266 266 266 266 266 265 266 265 265 268 271 273 274 275 274 272 271 271 271 271 271 272 273
289 287 287 285 284 284 283 281 280 278 277 276 275 275 274 274 273 272 272 271 270 269 269 268 267 267 266 265 265 265 265 264 265 265 266 265 266 265 266 266 265 265 265 266 265 267 267 266 268 271 272 274 274 274 272 272 271 271 271 271 271 272
286 285 285 284 284 283 281 281 279 277 276 275 275 274 274 273 273 272 271 269 268 267 267 267 266 265 265 264 264 264 264 265 264 264 265 265 265 265 266 266 265 264 264 265 265 266 267 267 268 269 272 274 274 275 273 272 271 270 271 271 272 272
286 285 285 285 283 281 280 279 278 277 275 274 273 273 274 273 272 271 269 268 266 266 265 265 265 264 264 264 263 263 264 264 264 264 264 263 265 265 264 264 263 264 264 266 267 267 268 268 268 269 273 273 274 275 275 272 272 272 272 272 273 273
284 284 283 283 281 280 279 278 277 276 274 273 273 274 274 272 271 269 267 266 265 264 264 263 263 263 263 263 263 262 263 264 264 264 263 264 264 262 262 263 264 264 265 266 267 267 268 269 271 270 271 273 274 275 276 273 273 274 273 273 272 272
283 283 282 280 279 279 278 277 276 275 274 273 273 273 272 270 269 267 266 265 264 263 262 262 262 261 261 262 262 262 263 263 262 262 263 263 262 262 262 263 264 265 265 265 267 268 268 269 269 271 270 273 274 275 276 276 275 277 274 272 271 271
283 282 281 278 278 278 278 277 276 274 273 273 273 271 269 268 267 266 264 263 262 262 261 261 261 261 261 261 262 262 263 262 262 262 263 263 263 264 264 265 265 265 265 265 266 267 268 269 269 270 272 272 274 275 276 277 277 277 274 273 271 270
282 280 278 276 276 276 277 277 275 273 273 273 270 269 267 267 266 264 263 262 261 261 260 260 261 261 261 261 262 262 262 262 262 262 263 263 264 264 264 265 265 265 265 266 266 266 267 268 269 269 271 273 274 275 276 276 276 276 276 271 270 270
281 279 276 275 275 276 276 276 276 272 273 270 269 268 267 265 264 263 262 261 261 260 260 260 260 261 261 261 262 263 263 262 262 263 264 264 264 264 264 264 265 265 266 265 266 266 267 267 268 269 270 271 272 273 274 275 275 274 274 273 271 273
278 277 275 274 274 275 276 276 276 274 271 268 269 267 265 263 263 262 261 261 260 260 260 260 260 260 260 261 262 263 263 263 264 264 264 264 264 264 264 264 265 265 266 265 266 266 267 267 268 268 269 271 271 271 272 271 271 273 272 270 270 271
277 276 275 274 274 274 274 275 274 272 269 268 267 266 265 264 263 262 261 260 260 260 261 261 260 260 260 261 262 262 263 263 264 264 264 264 264 263 264 264 265 265 265 265 265 266 266 266 267 268 269 270 271 271 271 271 270 269 269 269 269 269
277 276 275 274 273 273 274 274 274 269 268 267 265 264 264 264 263 262 260 260 260 260 261 261 260 261 261 261 262 263 264 263 263 264 265 265 265 265 265 265 266 266 266 266 266 266 265 266 266 268 273 271 273 271 270 270 269 269 269 271 273 268
277 276 274 273 272 272 272 273 270 268 268 266 265 264 264 263 262 261 260 260 260 260 260 260 261 261 261 261 261 261 261 263 266 266 264 264 267 268 269 269 267 268 268 267 267 268 266 266 268 273 273 273 273 273 274 273 273 272 271 272 272 268
276 275 273 273 271 271 271 271 267 267 266 265 264 265 263 262 261 261 260 260 260 260 260 260 260 260 261 261 261 261 261 261 264 268 268 268 268 269 269 269 269 270 270 269 267 268 270 271 272 272 272 273 273 273 273 273 272 272 272 272 267 263
275 274 273 272 271 270 270 268 266 265 265 264 264 264 263 263 262 261 260 260 260 260 260 260 260 261 261 261 262 262 262 262 262 264 268 269 268 269 269 269 269 269 269 270 269 269 268 270 271 272 272 272 272 272 272 272 271 271 271 270 269 262
275 275 274 272 270 270 268 265 265 264 264 263 264 264 263 263 262 261 261 261 260 260 261 261 260 261 261 260 260 261 262 263 263 262 263 266 268 268 269 269 269 269 269 269 270 270 270 270 271 271 271 271 271 272 271 271 270 270 270 269 263 261
276 275 273 271 269 268 266 264 263 263 263 263 264 264 264 264 263 262 261 261 261 261 261 260 260 261 261 261 261 261 262 262 263 263 263 262 262 264 267 267 267 268 268 268 269 270 270 270 270 270 271 271 271 271 270 269 265 268 269 267 261 260
276 274 272 269 268 266 264 263 262 262 262 263 264 264 264 264 263 262 261 260 261 261 261 261 261 261 260 260 260 260 260 260 259 259 260 261 261 260 260 260 261 264 267 266 266 268 269 270 270 270 270 270 270 269 268 266 261 260 260 261 261 260
274 272 270 268 266 265 263 262 261 261 261 262 263 265 264 263 262 262 261 261 261 261 262 261 260 260 260 259 260 260 260 260 259 259 258 258 257 258 258 258 259 258 262 265 266 267 268 269 269 269 269 269 269 268 266 259 259 259 259 259 260 259

ECMWFFLT1_sfc_thetae_006.txt.gz
Theta_e
289 289 288 287 287 287 286 287 287 287 287 287 287 286 287 286 286 285 285 285 285 284 284 283 283 282 282 281 281 280 280 279 279 278 278 278 278 279 278 278 277 277 277 277 276 277 277 276 276 276 276 276 275 275 276 275 275 275 275 276 276 277
289 289 288 287 287 286 286 286 286 286 287 286 286 286 286 285 285 285 284 284 284 284 283 282 282 282 281 280 280 279 279 279 278 277 277 278 278 277 277 277 276 276 276 276 276 276 276 275 275 275 275 275 275 275 275 275 274 274 274 274 275 276
288 287 287 287 285 284 285 285 286 286 286 286 286 286 285 285 285 285 285 284 284 283 282 282 281 280 280 279 279 279 278 278 278 277 277 277 277 276 276 276 276 276 276 275 276 275 274 274 274 274 274 274 274 274 273 273 273 273 274 274 274 274
287 286 285 285 285 285 285 285 284 284 285 286 286 286 285 285 284 285 284 284 283 283 282 281 280 280 279 278 278 277 277 277 277 276 276 276 276 276 275 275 275 275 275 274 274 274 274 274 274 273 273 273 273 273 274 273 272 272 272 272 272 272
288 287 286 286 286 286 285 284 285 285 285 285 285 286 285 285 285 285 284 283 283 282 281 280 279 279 278 277 277 277 277 277 276 276 276 275 275 275 275 275 275 274 274 274 274 274 273 273 273 273 273 273 272 272 271 272 271 271 271 271 271 271
286 286 285 286 285 285 285 285 285 285 285 285 285 285 285 284 284 284 283 283 282 282 281 280 279 278 278 277 277 276 276 276 276 276 276 275 275 275 275 275 274 274 274 274 273 273 273 273 273 272 272 272 271 271 271 270 270 270 270 270 270 270
286 287 286 286 286 285 284 284 284 284 285 285 285 285 285 284 284 283 283 282 281 281 280 279 278 277 277 277 277 276 276 276 276 276 275 275 275 275 274 274 274 274 274 273 273 273 272 272 272 272 271 271 270 270 270 270 270 270 270 269 269 271
288 286 285 285 285 285 285 284 284 284 284 284 284 284 283 283 283 283 282 281 281 280 279 278 278 277 277 277 276 276 276 276 275 275 275 275 274 274 274 274 274 274 273 273 272 272 271 271 270 270 269 269 269 269 269 269 269 269 269 269 269 269
285 285 285 286 285 284 285 284 284 284 283 283 283 284 283 283 282 282 281 281 280 279 279 278 277 277 277 277 276 276 276 276 275 275 274 275 274 274 273 273 273 272 272 271 271 271 271 270 270 269 269 269 269 269 269 269 269 269 269 269 269 269
285 285 285 285 285 285 284 284 284 284 283 283 283 283 283 283 282 281 280 280 279 279 278 278 277 277 277 277 276 276 276 275 275 275 274 274 274 273 273 272 272 271 271 271 271 271 271 270 270 269 269 269 269 268 268 268 268 269 269 269 270 270
286 286 286 285 285 284 284 284 283 283 283 283 283 283 282 282 281 280 280 279 279 279 278 278 277 277 277 276 276 275 275 275 275 275 275 274 273 273 272 272 272 271 271 271 271 271 271 270 270 270 269 269 269 268 268 268 269 269 270 270 271 271
289 288 287 286 285 284 284 284 283 283 283 283 283 283 282 281 281 280 279 279 279 278 278 277 277 277 276 276 275 275 275 275 275 274 273 273 272 271 271 271 271 270 270 270 270 270 270 270 270 271 273 273 269 269 269 270 270 270 271 271 271 272
290 289 287 286 285 285 285 285 284 284 283 283 282 282 282 281 280 280 279 279 278 278 277 277 276 276 276 275 275 274 274 274 273 272 271 270 270 269 270 270 269 269 269 269 269 269 270 270 270 273 274 275 276 274 272 272 272 272 272 272 272 272
290 290 289 288 287 286 285 285 284 283 283 283 282 282 281 280 280 279 279 278 278 277 277 276 276 275 275 274 274 273 272 271 271 270 269 269 268 269 269 268 268 269 269 269 269 269 270 270 272 274 275 276 276 276 274 273 273 273 273 273 272 272
290 290 290 290 289 287 286 286 284 283 283 283 282 281 280 280 279 279 278 278 277 277 276 276 275 274 274 274 273 272 270 270 270 269 268 268 268 268 267 268 268 268 269 269 269 269 269 269 272 274 275 275 276 276 276 274 274 273 273 273 273 272
290 290 289 290 290 290 289 287 286 285 284 283 281 280 280 279 279 278 278 277 277 276 276 275 274 273 273 272 271 270 269 268 268 268 268 268 268 267 267 268 268 268 269 269 269 269 269 269 271 273 274 275 276 276 276 274 274 274 273 273 272 271
291 290 289 288 289 288 285 284 284 282 282 281 280 280 279 279 278 277 277 276 276 276 275 275 274 272 271 270 269 268 267 267 267 267 267 267 267 267 267 267 267 268 268 269 269 268 268 268 271 273 274 275 276 276 276 274 274 273 272 272 272 272
291 291 291 288 286 285 285 285 283 283 282 280 280 279 278 278 277 277 277 276 276 275 275 274 273 270 269 268 267 267 267 267 267 267 267 267 267 268 268 268 268 268 268 268 267 267 267 267 271 272 274 274 275 276 274 273 272 272 271 271 272 272
290 290 287 284 285 284 285 284 283 282 280 279 279 278 278 277 277 277 276 276 275 275 274 274 271 269 268 267 267 267 266 266 266 267 267 267 267 267 267 267 268 268 267 267 267 266 266 266 269 271 273 274 275 275 273 272 272 272 271 271 272 272
289 287 287 285 284 285 284 283 282 281 279 279 278 278 277 277 277 277 276 276 275 274 273 273 270 269 268 267 266 266 267 267 267 266 267 267 267 267 267 267 267 267 267 267 266 267 266 266 268 271 272 274 274 274 273 272 272 271 271 271 272 272
288 286 284 284 284 283 283 282 281 280 279 278 277 277 277 276 277 276 276 275 274 273 272 271 270 269 268 267 267 267 266 266 266 267 267 267 267 267 267 267 266 266 267 267 267 268 267 266 268 271 272 273 274 274 273 272 271 271 271 271 272 273
285 283 284 284 284 283 282 281 281 280 278 277 277 276 276 277 277 276 275 274 273 272 271 270 269 268 267 267 267 267 267 267 266 266 266 266 266 266 266 266 266 265 266 266 266 266 267 267 267 268 272 273 274 275 273 272 271 270 271 272 272 272
288 287 286 286 283 282 281 281 280 279 278 277 276 276 277 277 276 275 274 273 272 271 270 269 269 268 267 267 266 267 266 266 266 265 265 265 265 265 266 266 265 265 265 265 266 266 266 267 267 268 272 273 274 275 274 272 272 272 272 272 273 273
285 284 283 283 282 281 281 280 280 279 277 276 276 277 276 276 275 274 272 271 270 269 269 268 268 268 266 266 266 265 265 266 266 265 265 265 265 265 264 264 264 264 264 265 266 267 267 269 271 269 271 272 273 274 275 273 273 274 273 272 272 272
284 284 284 282 281 281 281 280 279 278 277 276 276 276 275 274 273 272 271 270 269 268 267 267 266 266 265 265 265 265 265 265 264 264 264 264 264 264 263 263 263 264 265 266 266 267 268 269 269 271 270 272 273 274 275 276 275 276 274 272 271 270
283 283 282 279 279 279 280 280 279 278 276 276 275 274 273 272 272 270 269 269 269 267 266 265 264 264 264 264 265 264 264 263 263 263 263 264 263 263 262 263 264 265 265 265 266 267 268 268 268 270 271 271 273 274 275 276 276 276 274 273 271 270
282 281 279 277 276 276 277 278 279 277 276 276 274 274 272 271 270 269 268 268 267 266 265 264 264 263 264 264 264 263 262 262 262 262 263 263 263 263 263 264 265 264 264 265 265 266 267 268 268 268 270 272 273 274 275 275 275 275 275 271 270 270
279 279 278 275 275 276 277 277 278 277 277 275 274 273 272 270 269 268 267 266 266 264 263 263 263 263 263 264 264 264 263 262 262 263 262 263 264 264 264 264 264 264 265 265 266 266 266 267 267 268 269 270 271 272 273 274 274 273 273 272 270 273
279 279 279 280 276 276 276 277 277 278 275 273 273 273 271 269 269 268 266 265 264 263 262 262 262 262 263 263 264 264 263 263 264 263 263 263 264 264 264 264 264 264 265 264 265 266 266 266 267 268 269 269 270 271 272 272 271 272 272 270 270 270
280 280 279 279 278 276 276 276 276 276 274 273 273 271 270 269 268 267 265 263 262 262 262 262 262 262 262 263 263 263 263 264 265 264 263 264 264 264 264 264 264 265 265 265 265 265 265 266 266 267 268 269 271 271 271 271 271 270 269 269 270 267
281 281 280 281 280 277 275 276 276 274 273 273 271 270 269 268 267 265 264 263 262 262 262 262 262 262 262 263 263 264 264 264 265 265 265 266 266 265 265 264 265 266 266 266 265 265 265 265 266 267 271 272 273 272 271 270 270 269 269 270 271 265
282 282 281 282 280 276 275 275 275 273 272 271 271 270 269 267 266 264 263 262 262 262 262 261 261 262 262 263 263 263 263 266 268 267 265 265 269 270 270 269 267 267 267 266 267 267 265 266 267 272 273 272 272 273 273 272 272 272 271 271 269 265
281 281 281 281 278 276 276 275 275 271 270 270 270 270 269 267 265 264 263 262 262 263 262 262 261 262 262 263 263 263 263 264 267 270 270 269 270 271 272 271 271 272 271 268 266 268 271 271 272 272 272 272 272 272 272 271 271 271 271 270 265 259
282 280 280 281 278 276 275 273 273 271 270 269 269 269 268 267 266 264 263 262 263 263 262 262 262 262 262 262 263 262 263 263 264 266 270 271 272 272 272 272 272 272 272 272 269 268 267 270 271 271 271 271 271 271 271 270 270 270 270 268 266 257
285 284 282 281 279 276 273 272 272 270 269 269 269 269 268 267 266 264 263 263 263 262 262 262 262 262 262 262 262 262 263 263 263 263 265 268 272 272 272 272 272 272 271 272 272 271 270 270 271 271 271 271 270 270 269 269 269 269 269 266 259 256
285 285 283 282 279 277 274 273 272 270 269 269 268 268 268 267 266 265 264 263 263 263 262 262 262 262 262 263 263 263 263 263 264 264 265 265 265 268 270 271 271 271 271 271 271 271 271 271 271 270 270 270 270 269 268 266 264 267 267 264 256 256
285 284 282 280 278 275 274 274 273 271 270 269 268 268 267 267 266 265 264 263 263 263 262 262 263 262 263 263 263 263 263 263 264 264 264 264 263 264 263 262 264 268 270 267 269 270 271 270 270 270 270 269 269 267 266 263 257 256 256 257 256 256
283 282 281 279 276 274 273 273 272 269 268 268 268 268 267 267 266 265 264 263 263 263 263 263 263 263 263 263 263 264 264 263 263 263 263 263 263 263 260 259 259 259 266 269 268 270 270 270 270 269 269 268 267 266 264 255 254 253 254 254 254 254

ECMWFFLT1_sfc_thetae_009.txt.gz
Theta_e
288 287 287 287 287 287 286 286 286 286 287 287 287 287 287 287 286 286 286 286 286 286 285 284 284 284 284 283 283 282 282 281 281 280 280 280 280 280 279 279 278 278 278 278 277 277 277 277 277 277 276 276 276 275 275 275 275 275 275 275 275 275
288 288 287 287 287 286 286 285 285 285 287 286 286 287 286 285 285 286 285 285 285 285 284 284 284 284 284 283 282 282 282 281 280 280 279 279 279 279 279 278 278 278 277 277 277 276 276 276 276 276 276 275 275 275 275 274 274 274 274 274 274 275
288 288 287 287 285 284 284 284 285 286 285 286 286 286 285 285 285 285 285 285 285 284 283 283 283 283 283 282 282 281 281 280 280 280 279 279 279 278 278 277 277 277 277 276 276 276 276 275 275 275 275 275 274 274 274 273 273 273 273 273 273 273
287 288 285 283 284 284 284 285 285 284 285 286 286 285 285 285 286 285 286 285 285 284 284 283 283 282 282 281 281 281 280 280 280 279 278 278 278 278 277 277 277 276 276 276 275 275 275 275 275 274 274 274 273 272 274 273 272 272 272 272 272 272
288 288 287 286 286 286 285 284 285 285 285 285 285 286 286 286 286 286 285 285 284 283 283 282 282 282 281 281 280 280 280 279 279 278 278 278 277 277 277 276 276 276 276 275 275 275 274 274 274 274 273 273 273 272 272 273 272 272 272 272 271 271
285 284 285 286 286 286 285 285 286 286 285 285 285 285 286 286 286 285 284 284 284 283 282 282 281 281 280 280 280 280 279 278 278 278 278 277 277 276 276 276 276 275 275 275 274 274 274 273 273 273 273 273 272 272 272 272 272 272 271 271 271 271
285 286 286 286 287 286 286 286 285 285 285 285 285 286 286 286 285 284 284 284 283 282 282 281 281 280 280 280 279 279 278 277 277 277 277 276 276 275 275 275 275 275 274 274 274 273 273 273 273 273 272 272 273 273 272 272 271 271 271 271 271 272
288 287 286 286 286 286 286 286 286 285 285 285 285 285 285 285 285 284 284 283 283 282 281 281 280 280 280 279 279 278 277 277 276 276 276 276 275 275 275 275 274 274 274 274 274 274 273 273 273 273 272 272 271 271 271 271 271 271 271 271 270 270
287 288 288 287 287 286 286 286 285 285 285 285 285 285 285 285 284 284 283 283 282 282 281 281 280 280 279 279 278 277 276 276 276 276 275 275 275 274 274 274 274 274 273 273 273 273 273 272 272 271 271 270 270 270 270 270 270 270 270 270 270 270
291 289 289 288 287 286 285 285 285 285 285 285 284 284 284 284 284 283 283 282 282 282 281 281 280 279 279 278 277 276 276 276 275 275 275 275 274 274 274 274 274 273 273 273 272 272 272 271 271 270 270 270 270 269 269 270 269 269 269 269 270 270
291 290 289 288 287 286 285 285 284 284 284 284 283 283 283 283 283 282 282 282 282 282 281 280 279 279 278 277 276 276 275 275 275 275 274 274 274 274 274 274 273 272 272 272 271 271 271 271 270 270 270 269 269 270 269 269 269 269 269 269 270 270
292 292 290 288 287 286 286 285 284 284 284 283 283 282 283 282 282 282 282 282 282 281 281 280 279 278 277 276 276 275 275 275 274 274 274 274 274 273 273 272 272 272 271 270 270 270 270 270 270 272 275 273 270 269 269 269 269 270 270 270 270 271
293 292 290 288 287 287 287 286 285 284 284 283 282 282 282 282 282 282 282 281 281 280 279 278 278 277 276 276 276 275 275 274 274 273 273 273 272 272 271 271 271 270 270 270 270 269 270 270 270 274 276 277 276 271 269 269 270 270 271 271 271 272
291 290 290 290 289 288 287 286 285 284 283 283 283 283 282 282 282 282 281 281 280 279 278 278 277 276 276 275 275 274 274 274 273 273 272 271 270 270 270 270 270 270 271 271 270 270 270 270 273 276 277 277 278 276 270 271 271 272 272 273 272 273
291 291 291 291 291 290 288 287 286 284 284 283 283 282 281 281 282 281 281 280 279 278 278 277 276 276 275 275 275 274 273 273 273 272 271 270 270 269 270 271 270 270 270 270 270 270 270 270 274 276 277 277 278 278 277 274 274 273 273 273 273 273
291 291 291 292 292 292 292 289 287 287 286 284 282 281 281 281 281 280 280 279 279 278 278 277 276 276 275 275 274 274 273 272 272 271 271 270 270 270 270 270 269 270 270 270 270 270 270 270 274 277 277 277 278 278 278 275 274 274 274 274 274 273
290 290 290 290 290 290 290 287 286 286 283 282 282 281 281 281 280 280 279 279 279 278 277 277 276 276 275 275 274 273 272 272 271 270 270 270 270 270 269 269 269 269 269 270 270 270 270 270 274 277 277 277 277 278 278 275 275 274 274 273 272 272
289 290 291 291 290 289 288 288 287 285 284 283 282 281 281 281 280 280 279 279 278 278 278 277 276 276 275 274 273 272 272 272 271 270 269 269 269 269 269 269 269 269 269 270 270 269 269 270 275 276 276 276 277 278 276 275 274 273 272 272 272 272
290 291 291 291 290 289 288 287 285 285 283 282 282 281 281 280 280 279 279 279 278 278 277 277 276 275 274 273 272 272 272 271 270 269 269 268 268 268 268 268 269 269 269 269 269 269 268 269 273 275 275 276 277 276 274 273 272 272 272 272 272 272
290 289 290 290 289 288 287 284 284 284 282 282 281 280 280 280 280 280 279 279 278 278 277 277 276 275 273 272 272 272 272 270 270 269 269 268 267 267 267 268 268 269 269 269 268 268 268 268 271 274 275 275 276 275 273 272 272 272 272 271 272 272
288 288 287 286 287 287 282 283 284 283 282 282 281 281 280 280 280 280 279 279 278 278 277 277 276 275 273 272 272 272 270 269 269 269 268 268 268 267 267 268 267 268 268 268 268 270 268 267 269 273 274 275 275 275 273 272 271 271 271 271 271 272
285 286 284 283 283 281 280 281 283 283 283 281 280 280 280 280 281 281 280 279 278 277 277 277 276 274 273 273 272 271 270 270 268 267 268 268 267 267 267 267 267 267 267 268 267 269 269 267 267 270 274 274 275 276 273 272 271 270 270 271 271 271
283 282 282 282 280 278 278 278 280 281 281 280 279 279 281 281 280 280 279 278 277 276 276 276 275 274 273 272 271 270 269 268 268 267 267 267 266 266 266 266 266 266 266 267 267 267 268 268 267 269 273 274 275 276 275 272 271 271 271 271 271 272
284 282 281 278 278 277 277 277 278 278 278 279 279 280 277 278 278 278 277 276 276 275 275 275 274 273 272 271 270 269 268 267 267 267 266 266 266 265 265 265 265 265 266 266 266 266 266 269 270 268 272 274 275 276 276 273 272 273 272 272 272 272
285 282 278 276 276 278 280 279 278 278 276 277 278 276 275 275 276 276 275 275 274 274 274 273 272 272 271 270 269 268 267 266 265 266 266 266 265 265 264 264 265 265 265 265 266 266 267 268 270 271 270 273 274 275 275 276 275 276 275 272 271 271
284 282 279 276 276 277 281 282 282 280 278 279 276 275 274 275 275 274 274 273 273 273 272 271 271 270 270 270 269 268 267 265 265 265 265 265 265 264 263 264 264 265 264 265 265 266 267 268 268 272 272 272 274 274 275 276 276 276 274 273 271 270
286 286 282 278 277 277 279 281 283 281 280 281 278 277 275 274 274 273 273 273 272 272 271 270 269 269 268 269 269 268 266 265 264 264 264 265 265 264 263 264 264 265 265 265 265 266 267 268 268 269 271 273 273 274 275 275 275 275 275 272 271 270
285 282 283 282 278 279 279 280 282 282 283 280 277 277 275 274 273 273 272 272 271 270 270 269 268 267 268 268 268 268 267 265 264 264 264 264 264 264 264 264 265 265 265 265 266 266 267 268 268 268 269 271 272 273 274 274 274 274 273 273 271 272
286 285 284 284 282 279 279 280 281 283 283 278 278 276 275 274 273 272 271 271 270 269 269 269 267 267 267 267 267 267 266 265 265 265 264 264 264 265 265 265 265 265 265 265 266 266 267 267 267 267 268 268 269 270 271 272 272 272 273 270 269 268
285 285 285 285 285 282 280 280 280 281 281 278 277 276 274 273 273 272 271 270 269 268 268 268 266 266 266 266 266 265 265 265 265 265 265 265 265 265 265 265 265 265 265 265 266 266 266 266 266 266 267 268 269 269 271 271 271 271 269 268 268 265
286 286 285 286 286 285 282 281 281 281 280 279 276 275 274 273 272 272 271 270 268 267 267 268 266 266 266 265 265 266 266 265 265 266 266 267 268 268 267 266 266 266 267 267 266 265 264 264 265 266 270 269 272 270 270 270 270 269 269 270 270 263
285 285 285 286 287 286 284 283 282 281 280 278 276 275 274 273 272 271 270 269 268 267 267 266 266 266 265 265 264 264 265 268 270 268 267 267 270 272 272 271 267 267 267 267 267 267 265 264 266 272 274 273 274 274 274 273 272 272 271 270 269 264
284 284 284 285 286 286 285 284 283 281 279 277 275 274 274 273 271 271 269 268 267 266 266 266 265 265 265 265 264 264 264 265 268 271 271 271 272 272 273 273 273 273 272 268 266 269 271 271 273 274 274 274 274 274 273 272 272 272 271 269 263 256
283 284 284 285 285 285 285 285 283 281 278 276 275 274 274 273 272 270 269 268 267 266 266 266 265 265 265 265 264 264 265 265 265 267 271 273 274 274 274 274 274 274 273 272 270 269 269 273 274 274 274 274 273 273 272 272 272 271 270 268 266 256
278 278 279 280 281 283 284 283 283 280 277 275 274 274 273 273 272 271 270 268 267 266 265 265 265 265 265 264 264 264 265 265 266 265 267 271 275 275 275 275 275 274 274 273 273 273 272 273 274 274 274 273 273 272 272 272 271 270 268 266 257 253
275 275 275 276 277 279 280 282 282 280 276 274 273 273 273 273 272 272 270 268 267 266 265 264 264 264 265 265 265 265 266 266 266 267 268 268 269 271 273 275 275 274 274 274 274 273 274 274 274 274 273 273 272 271 271 270 267 269 267 262 254 254
272 273 274 275 276 277 278 280 282 281 276 274 273 273 272 272 272 271 268 266 266 266 265 265 265 265 265 265 265 265 266 266 267 268 268 268 268 267 267 268 271 274 274 272 273 274 274 274 274 273 272 272 271 270 269 267 259 257 256 255 254 254
270 271 273 274 275 276 277 279 282 279 274 273 272 272 272 272 272 271 269 267 266 266 266 265 265 266 266 265 266 266 267 267 267 267 267 268 267 267 267 267 268 270 273 274 274 274 274 274 273 272 272 270 270 269 266 256 254 253 253 253 252 251

ECMWFFLT1_sfc_thetae_015.txt.gz
Theta_e
286 285 284 283 284 285 284 284 284 284 284 284 285 286 287 286 286 286 286 286 288 288 287 287 287 287 287 287 286 284 284 284 284 284 284 283 283 283 282 282 282 281 281 281 280 280 280 280 279 279 279 279 278 278 277 277 277 277 276 276 277 276
285 285 284 284 284 284 284 284 283 284 284 284 284 284 284 284 285 286 286 286 287 287 287 287 287 287 287 286 285 284 284 284 284 283 283 283 283 282 282 282 282 281 281 280 280 279 279 279 279 279 278 278 278 277 277 276 277 276 276 275 276 276
286 285 284 283 283 283 283 284 285 285 284 285 285 285 285 285 286 285 286 286 286 286 286 287 286 286 286 286 285 285 284 284 284 283 283 282 282 282 282 282 281 281 281 280 280 279 279 279 278 278 278 278 277 276 276 276 276 276 275 275 275 275
288 287 285 284 284 284 284 285 285 284 285 286 286 285 286 286 286 286 287 287 287 286 286 286 286 286 286 285 285 284 284 283 283 283 282 282 282 282 282 281 281 281 281 280 279 279 279 279 278 278 278 277 276 276 276 276 276 275 274 274 274 274
287 287 287 287 287 286 286 285 285 286 286 286 286 286 286 287 287 287 287 286 286 286 286 286 285 285 285 284 284 284 284 283 283 282 282 282 281 281 282 281 281 281 280 280 279 279 279 278 278 278 277 277 276 276 276 276 276 275 274 274 274 274
290 289 290 288 287 287 287 286 286 286 286 286 285 285 286 286 286 286 286 286 286 286 285 285 285 284 284 284 285 284 284 284 282 282 282 281 281 280 281 281 281 280 280 279 279 279 278 278 278 277 277 277 277 276 276 276 276 275 275 274 274 273
290 291 291 290 289 288 288 287 287 286 285 285 285 286 286 286 286 286 286 286 286 285 285 285 285 284 284 284 285 284 284 283 282 281 281 281 281 281 280 280 280 280 280 279 279 278 278 278 277 277 277 277 277 277 276 276 275 275 274 274 274 275
288 288 289 289 289 289 289 288 287 286 285 284 285 285 285 286 286 286 286 286 286 286 285 285 285 284 284 284 284 284 284 284 282 281 281 281 281 280 280 280 280 280 279 279 279 278 278 278 277 277 277 277 276 276 276 275 275 275 274 273 273 273
287 288 288 289 289 288 288 288 287 286 285 285 285 285 285 285 285 286 286 286 286 286 285 285 285 285 285 285 285 285 284 283 282 281 281 281 281 280 280 280 280 280 280 279 279 278 278 277 277 277 276 276 276 275 275 274 274 274 273 273 273 272
287 287 287 287 288 288 289 288 288 287 287 287 287 285 285 286 284 285 285 285 285 285 286 285 285 285 285 285 284 284 283 283 282 281 281 280 280 280 280 279 279 279 279 279 279 278 278 277 277 276 276 276 275 275 274 274 273 273 272 272 272 271
286 286 287 287 288 288 288 289 290 290 290 290 290 289 287 285 283 284 284 285 285 286 286 286 285 285 285 284 283 283 283 282 282 281 280 280 280 280 280 279 279 278 278 278 278 277 277 277 276 276 276 275 275 275 274 273 273 272 272 271 271 271
286 286 286 287 287 287 288 288 289 290 290 290 291 290 289 283 284 284 284 284 285 286 286 285 285 284 284 283 283 283 282 282 281 280 279 279 279 279 279 278 278 278 278 277 277 277 277 277 277 278 280 279 275 274 274 273 272 272 271 271 271 270
285 285 286 286 286 287 287 288 288 289 289 290 290 290 290 285 285 284 284 284 285 285 285 284 284 283 283 283 283 282 281 281 279 279 279 278 278 278 278 278 278 277 278 277 277 276 276 276 277 280 282 282 280 275 273 272 272 271 272 271 271 270
285 285 285 285 286 286 287 287 287 288 288 289 289 289 290 287 285 284 284 285 285 284 284 284 283 282 283 282 282 281 281 280 278 278 278 277 277 277 277 277 277 277 277 277 277 276 276 276 279 282 283 283 282 278 273 273 272 271 271 271 271 270
284 284 285 285 286 286 286 286 286 287 287 287 287 288 288 287 285 284 284 284 284 284 283 282 282 282 281 281 281 280 279 279 278 278 277 277 278 277 277 277 277 277 277 277 276 276 276 276 280 282 283 283 282 280 276 273 272 272 271 271 271 270
285 285 285 285 285 285 286 286 286 286 286 286 286 287 287 286 285 283 283 284 283 283 282 282 282 282 282 281 280 279 279 278 278 279 278 278 277 277 277 277 277 277 276 276 276 276 276 276 280 283 283 283 283 281 277 272 272 272 271 271 271 271
285 285 285 285 285 286 286 286 286 285 285 285 285 286 285 285 283 283 283 282 282 282 282 282 282 282 281 280 279 278 278 278 278 278 278 278 277 277 277 276 276 276 276 276 276 276 275 275 280 283 284 284 283 282 277 272 272 271 271 271 272 272
284 284 285 285 286 286 286 285 285 283 283 284 285 284 284 283 283 283 282 281 281 280 281 281 281 281 280 279 278 278 278 278 278 278 278 277 277 277 277 277 277 276 276 276 276 275 275 275 281 283 284 284 284 282 273 271 271 271 271 271 272 273
286 285 285 286 286 286 286 286 285 283 283 284 284 283 283 282 282 283 282 281 281 280 280 280 280 280 279 278 278 277 278 278 277 278 278 277 277 276 276 276 276 276 276 275 274 274 274 274 279 283 284 284 284 281 271 271 271 271 271 272 273 273
286 286 286 286 286 286 286 286 285 283 283 283 283 282 282 283 283 282 280 280 281 280 280 280 280 280 279 278 278 278 278 277 277 277 277 276 276 275 276 276 275 275 275 275 274 274 273 273 278 283 284 284 284 278 271 271 272 272 272 272 273 273
285 285 285 285 284 285 286 286 285 284 283 283 283 282 283 284 283 281 279 280 279 278 278 278 278 279 279 278 278 278 277 277 277 277 276 276 276 275 275 275 274 273 273 274 274 276 274 273 277 283 284 284 284 278 273 272 272 272 272 272 272 272
284 283 283 283 283 284 285 285 285 284 284 284 284 284 284 284 282 279 278 278 278 277 277 278 279 279 279 278 277 277 277 276 275 274 275 274 275 274 274 274 273 273 273 273 273 274 274 272 274 280 284 284 284 280 274 273 273 272 272 272 271 270
282 281 281 282 282 283 284 284 284 283 283 284 284 284 285 284 282 279 278 278 277 276 276 276 278 278 277 276 275 274 274 274 274 273 273 273 272 272 271 272 272 272 272 272 273 273 273 272 273 277 283 284 285 282 278 273 273 272 272 271 271 270
279 279 279 280 280 281 282 282 281 281 282 282 283 284 286 284 282 280 279 279 278 277 276 276 277 278 276 273 275 275 274 273 274 273 273 272 271 271 270 271 270 270 270 271 272 272 272 273 275 276 282 284 285 283 280 274 273 273 272 271 270 270
277 277 277 277 278 279 280 280 278 279 280 280 282 285 285 285 283 281 280 279 278 277 276 276 277 277 275 275 276 276 274 273 273 273 273 272 270 270 269 270 270 270 269 269 270 271 271 271 274 278 279 283 284 284 281 278 276 277 273 271 270 270
275 275 275 275 276 277 278 277 276 277 277 279 282 284 285 285 285 282 280 279 279 277 276 276 276 276 276 275 275 275 274 272 272 272 272 271 270 269 269 269 269 269 269 268 268 269 269 270 272 277 280 281 284 284 281 280 279 278 273 272 271 272
273 273 273 274 275 275 275 276 275 275 275 278 281 283 284 283 283 282 281 280 280 278 277 276 276 276 275 275 276 275 273 272 272 271 271 271 270 270 269 268 269 269 269 267 267 267 268 269 271 273 278 281 283 284 282 280 279 279 277 273 272 273
271 271 271 272 273 273 273 273 274 273 274 276 279 281 280 278 278 278 279 280 280 279 278 276 276 276 275 275 276 275 274 273 272 272 271 271 271 270 270 269 269 269 269 267 267 267 267 269 270 272 275 279 281 282 281 280 279 279 277 275 274 275
269 269 269 269 270 271 271 272 272 273 274 275 277 277 276 274 274 275 276 278 280 280 278 276 276 275 275 275 275 275 274 273 273 272 271 271 271 271 270 270 269 269 269 267 267 267 267 268 269 271 273 276 278 279 279 278 277 278 277 274 274 275
266 266 267 267 268 269 269 270 270 272 274 274 274 272 271 271 272 273 274 275 278 279 278 276 275 274 275 274 274 274 274 273 273 272 272 271 271 271 270 270 269 269 269 267 267 267 267 267 268 270 272 274 276 277 278 276 276 276 274 272 273 272
265 265 265 266 267 267 267 268 270 271 270 269 269 269 268 269 271 272 272 274 275 277 277 276 276 275 275 274 273 274 274 273 272 273 273 274 273 273 272 271 271 271 271 269 268 267 266 267 268 269 274 274 278 277 276 275 275 274 272 273 272 267
265 264 264 264 265 265 265 266 266 266 266 267 267 267 267 268 269 270 271 273 274 276 277 275 275 275 274 274 273 273 273 274 276 275 273 273 275 276 276 276 272 272 272 270 270 270 268 267 269 274 277 278 279 280 279 278 278 275 272 274 274 269
264 263 263 263 263 263 263 263 263 263 264 265 265 265 265 266 267 269 270 272 273 275 276 276 275 274 274 274 273 273 272 271 273 277 277 276 275 276 277 277 277 276 276 272 270 272 274 273 274 276 277 279 279 280 280 279 277 276 276 276 270 266
262 261 261 262 262 261 261 261 261 262 262 263 264 265 266 266 267 267 268 271 273 275 275 276 276 274 273 273 273 272 272 271 270 271 276 278 277 277 277 278 278 277 277 277 274 272 272 274 276 277 278 279 280 280 279 278 278 278 278 276 273 264
261 261 260 260 260 259 260 259 260 261 261 262 263 264 264 265 266 266 268 270 272 274 275 276 275 274 273 272 271 271 271 271 270 269 269 273 277 277 277 278 278 278 277 278 277 276 274 275 276 278 278 279 279 279 279 279 279 278 278 276 267 263
260 259 259 258 258 258 258 259 259 260 260 261 262 263 264 266 267 268 269 271 272 274 275 276 276 274 273 273 272 271 271 271 271 270 270 269 270 272 275 277 278 278 278 278 278 277 276 277 278 278 279 279 279 279 279 278 276 278 278 272 264 263
258 258 258 259 259 258 258 258 259 260 261 262 263 265 265 264 264 264 267 270 272 274 275 276 276 275 274 273 272 271 270 270 270 270 270 269 269 269 270 271 273 277 278 276 276 277 277 278 278 279 279 279 279 279 279 278 274 273 270 266 263 262
257 257 258 258 257 257 257 258 259 261 263 264 263 262 261 262 263 265 267 270 273 275 276 277 276 275 274 272 272 271 271 270 270 269 270 270 270 270 270 270 272 273 277 278 277 277 278 278 279 279 279 279 279 279 279 272 270 267 264 262 261 260